Time,TemperatureF,DewpointF,PressureIn,WindDirection,WindDirectionDegrees,WindSpeedMPH,WindSpeedGustMPH,Humidity,HourlyPrecipIn,Conditions,Clouds,dailyrainin,SoftwareType,DateUTC
2013-08-10 00:01:00,76.3,55.7,29.26,NNW,328,0.0,0.0,49,0.00,,,0.00,VWS V14.01,2013-08-10 04:01:00,
2013-08-10 00:02:00,76.3,55.7,29.26,NNW,330,0.0,0.0,49,0.00,,,0.00,VWS V14.01,2013-08-10 04:02:00,
2013-08-10 00:08:00,76.3,55.7,29.26,NNW,334,0.0,0.0,49,0.00,,,0.00,VWS V14.01,2013-08-10 04:08:00,
2013-08-10 00:13:00,76.1,55.6,29.26,North,6,0.0,3.6,49,0.00,,,0.00,VWS V14.01,2013-08-10 04:13:00,
2013-08-10 00:18:00,76.1,56.1,29.26,North,350,0.0,0.0,50,0.00,,,0.00,VWS V14.01,2013-08-10 04:18:00,
2013-08-10 00:23:00,76.1,56.1,29.26,NNW,335,0.0,0.0,50,0.00,,,0.00,VWS V14.01,2013-08-10 04:23:00,
2013-08-10 00:28:00,76.3,56.3,29.26,NNW,338,0.0,0.0,50,0.00,,,0.00,VWS V14.01,2013-08-10 04:28:00,
2013-08-10 00:33:00,76.1,56.1,29.26,NNW,338,0.0,0.0,50,0.00,,,0.00,VWS V14.01,2013-08-10 04:33:00,
2013-08-10 00:39:00,76.1,55.6,29.26,NNW,338,0.0,0.0,49,0.00,,,0.00,VWS V14.01,2013-08-10 04:39:00,
2013-08-10 00:44:00,76.1,55.6,29.26,NNW,338,0.0,0.0,49,0.00,,,0.00,VWS V14.01,2013-08-10 04:44:00,
2013-08-10 00:49:00,76.1,56.1,29.26,NNW,338,0.0,0.0,50,0.00,,,0.00,VWS V14.01,2013-08-10 04:49:00,
2013-08-10 00:54:00,76.1,55.6,29.26,North,350,2.2,3.1,49,0.00,,,0.00,VWS V14.01,2013-08-10 04:54:00,
2013-08-10 00:59:00,76.1,55.6,29.26,North,350,0.0,0.0,49,0.00,,,0.00,VWS V14.01,2013-08-10 04:59:00,
2013-08-10 01:04:00,76.1,55.6,29.26,North,350,0.0,0.0,49,0.00,,,0.00,VWS V14.01,2013-08-10 05:04:00,
2013-08-10 01:09:00,75.9,55.4,29.26,NNW,343,0.0,0.0,49,0.00,,,0.00,VWS V14.01,2013-08-10 05:09:00,
2013-08-10 01:14:00,75.9,55.4,29.26,NNW,345,0.0,0.0,49,0.00,,,0.00,VWS V14.01,2013-08-10 05:14:00,
2013-08-10 01:19:00,75.9,55.4,29.26,NNW,328,0.0,0.0,49,0.00,,,0.00,VWS V14.01,2013-08-10 05:19:00,
2013-08-10 01:24:00,75.7,55.2,29.26,NNW,331,0.0,0.0,49,0.00,,,0.00,VWS V14.01,2013-08-10 05:24:00,
2013-08-10 01:29:00,75.7,55.8,29.26,NNW,346,0.0,0.0,50,0.00,,,0.00,VWS V14.01,2013-08-10 05:29:00,
2013-08-10 01:34:00,75.7,55.8,29.26,NNW,342,2.7,2.7,50,0.00,,,0.00,VWS V14.01,2013-08-10 05:34:00,
2013-08-10 01:39:00,75.6,55.6,29.26,NNW,342,0.0,0.0,50,0.00,,,0.00,VWS V14.01,2013-08-10 05:39:00,
2013-08-10 01:44:00,75.6,55.6,29.26,NNW,331,0.0,0.0,50,0.00,,,0.00,VWS V14.01,2013-08-10 05:44:00,
2013-08-10 01:49:00,75.6,55.6,29.26,NNW,331,0.0,0.0,50,0.00,,,0.00,VWS V14.01,2013-08-10 05:49:00,
2013-08-10 01:54:00,75.6,55.6,29.26,NNW,337,0.0,0.0,50,0.00,,,0.00,VWS V14.01,2013-08-10 05:54:00,
2013-08-10 01:59:00,75.6,55.6,29.26,North,353,0.0,0.0,50,0.00,,,0.00,VWS V14.01,2013-08-10 05:59:00,
2013-08-10 02:04:00,75.6,55.6,29.26,North,353,0.0,0.0,50,0.00,,,0.00,VWS V14.01,2013-08-10 06:04:00,
2013-08-10 02:09:00,75.4,55.5,29.26,North,353,0.0,0.0,50,0.00,,,0.00,VWS V14.01,2013-08-10 06:09:00,
2013-08-10 02:14:00,75.4,55.5,29.26,North,353,0.0,0.0,50,0.00,,,0.00,VWS V14.01,2013-08-10 06:14:00,
2013-08-10 02:19:00,75.4,55.5,29.26,North,353,0.0,0.0,50,0.00,,,0.00,VWS V14.01,2013-08-10 06:19:00,
2013-08-10 02:24:00,75.4,55.5,29.26,North,353,0.0,0.0,50,0.00,,,0.00,VWS V14.01,2013-08-10 06:24:00,
2013-08-10 02:29:00,75.2,55.3,29.26,North,353,0.0,0.0,50,0.00,,,0.00,VWS V14.01,2013-08-10 06:29:00,
2013-08-10 02:35:00,75.2,55.3,29.26,North,353,0.0,0.0,50,0.00,,,0.00,VWS V14.01,2013-08-10 06:35:00,
2013-08-10 02:40:00,75.0,55.7,29.26,North,353,0.0,0.0,51,0.00,,,0.00,VWS V14.01,2013-08-10 06:40:00,
2013-08-10 02:45:00,75.0,55.7,29.26,North,353,0.0,0.0,51,0.00,,,0.00,VWS V14.01,2013-08-10 06:45:00,
2013-08-10 02:50:00,74.8,55.5,29.29,North,353,0.0,0.0,51,0.00,,,0.00,VWS V14.01,2013-08-10 06:50:00,
2013-08-10 02:55:00,74.8,55.5,29.29,North,353,0.0,0.0,51,0.00,,,0.00,VWS V14.01,2013-08-10 06:55:00,
2013-08-10 03:00:00,74.7,55.3,29.29,North,353,0.0,0.0,51,0.00,,,0.00,VWS V14.01,2013-08-10 07:00:00,
2013-08-10 03:05:00,74.7,55.3,29.29,North,353,0.0,0.0,51,0.00,,,0.00,VWS V14.01,2013-08-10 07:05:00,
2013-08-10 03:11:00,74.5,55.2,29.29,North,353,0.0,0.0,51,0.00,,,0.00,VWS V14.01,2013-08-10 07:11:00,
2013-08-10 03:16:00,74.5,55.7,29.29,North,353,0.0,0.0,52,0.00,,,0.00,VWS V14.01,2013-08-10 07:16:00,
2013-08-10 03:21:00,74.5,55.7,29.29,North,353,0.0,0.0,52,0.00,,,0.00,VWS V14.01,2013-08-10 07:21:00,
2013-08-10 03:26:00,74.3,55.6,29.29,North,353,0.0,0.0,52,0.00,,,0.00,VWS V14.01,2013-08-10 07:26:00,
2013-08-10 03:31:00,73.9,55.2,29.29,North,353,0.0,0.0,52,0.00,,,0.00,VWS V14.01,2013-08-10 07:31:00,
2013-08-10 03:36:00,73.8,55.6,29.29,North,353,0.0,0.0,53,0.00,,,0.00,VWS V14.01,2013-08-10 07:36:00,
2013-08-10 03:41:00,73.8,55.6,29.29,North,353,0.0,0.0,53,0.00,,,0.00,VWS V14.01,2013-08-10 07:41:00,
2013-08-10 03:47:00,73.8,56.1,29.29,North,353,0.0,0.0,54,0.00,,,0.00,VWS V14.01,2013-08-10 07:47:00,
2013-08-10 03:52:00,73.8,56.1,29.29,North,353,0.0,0.0,54,0.00,,,0.00,VWS V14.01,2013-08-10 07:52:00,
2013-08-10 03:57:00,73.6,55.9,29.29,North,353,0.0,0.0,54,0.00,,,0.00,VWS V14.01,2013-08-10 07:57:00,
2013-08-10 04:02:00,73.6,55.9,29.29,North,353,0.0,0.0,54,0.00,,,0.00,VWS V14.01,2013-08-10 08:02:00,
2013-08-10 04:07:00,73.4,55.8,29.29,North,353,0.0,0.0,54,0.00,,,0.00,VWS V14.01,2013-08-10 08:07:00,
2013-08-10 04:12:00,73.2,56.1,29.29,North,353,0.0,0.0,55,0.00,,,0.00,VWS V14.01,2013-08-10 08:12:00,
2013-08-10 04:17:00,73.0,55.9,29.29,North,353,0.0,0.0,55,0.00,,,0.00,VWS V14.01,2013-08-10 08:17:00,
2013-08-10 04:22:00,72.9,56.3,29.29,North,353,0.0,0.0,56,0.00,,,0.00,VWS V14.01,2013-08-10 08:22:00,
2013-08-10 04:27:00,72.9,56.3,29.29,North,353,0.0,0.0,56,0.00,,,0.00,VWS V14.01,2013-08-10 08:27:00,
2013-08-10 04:32:00,72.9,56.8,29.29,North,353,0.0,0.0,57,0.00,,,0.00,VWS V14.01,2013-08-10 08:32:00,
2013-08-10 04:37:00,72.9,56.8,29.29,North,353,0.0,0.0,57,0.00,,,0.00,VWS V14.01,2013-08-10 08:37:00,
2013-08-10 04:42:00,72.9,57.2,29.29,North,353,0.0,0.0,58,0.00,,,0.00,VWS V14.01,2013-08-10 08:42:00,
2013-08-10 04:47:00,72.7,57.1,29.29,North,353,0.0,0.0,58,0.00,,,0.00,VWS V14.01,2013-08-10 08:47:00,
2013-08-10 04:52:00,72.7,57.1,29.29,North,353,0.0,0.0,58,0.00,,,0.00,VWS V14.01,2013-08-10 08:52:00,
2013-08-10 04:57:00,72.7,57.1,29.29,North,353,0.0,0.0,58,0.00,,,0.00,VWS V14.01,2013-08-10 08:57:00,
2013-08-10 05:02:00,72.5,57.4,29.29,North,353,0.0,0.0,59,0.00,,,0.00,VWS V14.01,2013-08-10 09:02:00,
2013-08-10 05:07:00,72.5,57.4,29.29,North,353,0.0,0.0,59,0.00,,,0.00,VWS V14.01,2013-08-10 09:07:00,
2013-08-10 05:13:00,72.5,57.4,29.29,North,353,0.0,0.0,59,0.00,,,0.00,VWS V14.01,2013-08-10 09:13:00,
2013-08-10 05:18:00,72.5,57.4,29.29,North,353,0.0,0.0,59,0.00,,,0.00,VWS V14.01,2013-08-10 09:18:00,
2013-08-10 05:23:00,72.3,57.2,29.29,North,353,0.0,0.0,59,0.00,,,0.00,VWS V14.01,2013-08-10 09:23:00,
2013-08-10 05:29:00,72.1,57.5,29.29,North,353,0.0,0.0,60,0.00,,,0.00,VWS V14.01,2013-08-10 09:29:00,
2013-08-10 05:34:00,72.1,57.5,29.29,North,353,0.0,0.0,60,0.00,,,0.00,VWS V14.01,2013-08-10 09:34:00,
2013-08-10 05:39:00,72.1,57.5,29.29,North,353,0.0,0.0,60,0.00,,,0.00,VWS V14.01,2013-08-10 09:39:00,
2013-08-10 05:44:00,72.1,57.5,29.29,North,353,0.0,0.0,60,0.00,,,0.00,VWS V14.01,2013-08-10 09:44:00,
2013-08-10 05:49:00,72.1,57.5,29.32,North,353,0.0,0.0,60,0.00,,,0.00,VWS V14.01,2013-08-10 09:49:00,
2013-08-10 05:54:00,72.1,58.0,29.32,North,353,0.0,0.0,61,0.00,,,0.00,VWS V14.01,2013-08-10 09:54:00,
2013-08-10 05:59:00,72.3,58.1,29.32,North,353,0.0,0.0,61,0.00,,,0.00,VWS V14.01,2013-08-10 09:59:00,
2013-08-10 06:04:00,72.3,58.1,29.32,North,353,0.0,0.0,61,0.00,,,0.00,VWS V14.01,2013-08-10 10:04:00,
2013-08-10 06:09:00,72.3,58.1,29.32,North,353,0.0,0.0,61,0.00,,,0.00,VWS V14.01,2013-08-10 10:09:00,
2013-08-10 06:10:00,72.3,58.1,29.32,North,353,0.0,0.0,61,0.00,,,0.00,VWS V14.01,2013-08-10 10:10:00,
2013-08-10 06:15:00,72.3,58.6,29.32,North,353,0.0,0.0,62,0.00,,,0.00,VWS V14.01,2013-08-10 10:15:00,
2013-08-10 06:20:00,72.3,58.6,29.32,North,353,0.0,0.0,62,0.00,,,0.00,VWS V14.01,2013-08-10 10:20:00,
2013-08-10 06:25:00,72.3,58.6,29.32,North,353,0.0,0.0,62,0.00,,,0.00,VWS V14.01,2013-08-10 10:25:00,
2013-08-10 06:30:00,72.5,58.8,29.32,North,353,0.0,0.0,62,0.00,,,0.00,VWS V14.01,2013-08-10 10:30:00,
2013-08-10 06:35:00,72.5,58.8,29.32,North,353,0.0,0.0,62,0.00,,,0.00,VWS V14.01,2013-08-10 10:35:00,
2013-08-10 06:40:00,72.5,58.8,29.32,North,353,0.0,0.0,62,0.00,,,0.00,VWS V14.01,2013-08-10 10:40:00,
2013-08-10 06:46:00,72.3,58.6,29.32,North,353,0.0,0.0,62,0.00,,,0.00,VWS V14.01,2013-08-10 10:46:00,
2013-08-10 06:51:00,72.3,58.6,29.32,North,353,0.0,0.0,62,0.00,,,0.00,VWS V14.01,2013-08-10 10:51:00,
2013-08-10 06:56:00,72.5,58.8,29.32,North,353,0.0,0.0,62,0.00,,,0.00,VWS V14.01,2013-08-10 10:56:00,
2013-08-10 07:01:00,72.5,58.8,29.32,North,353,0.0,0.0,62,0.00,,,0.00,VWS V14.01,2013-08-10 11:01:00,
2013-08-10 07:06:00,72.7,58.9,29.32,North,353,0.0,0.0,62,0.00,,,0.00,VWS V14.01,2013-08-10 11:06:00,
2013-08-10 07:11:00,72.7,58.9,29.32,North,353,0.0,0.0,62,0.00,,,0.00,VWS V14.01,2013-08-10 11:11:00,
2013-08-10 07:16:00,72.7,58.9,29.32,North,353,0.0,0.0,62,0.00,,,0.00,VWS V14.01,2013-08-10 11:16:00,
2013-08-10 07:21:00,72.9,59.1,29.32,North,353,0.0,0.0,62,0.00,,,0.00,VWS V14.01,2013-08-10 11:21:00,
2013-08-10 07:26:00,72.9,58.6,29.32,North,353,0.0,0.0,61,0.00,,,0.00,VWS V14.01,2013-08-10 11:26:00,
2013-08-10 07:31:00,72.9,58.6,29.32,North,353,0.0,0.0,61,0.00,,,0.00,VWS V14.01,2013-08-10 11:31:00,
2013-08-10 07:36:00,72.9,58.6,29.32,North,353,0.0,0.0,61,0.00,,,0.00,VWS V14.01,2013-08-10 11:36:00,
2013-08-10 07:41:00,72.9,58.6,29.32,North,353,0.0,0.0,61,0.00,,,0.00,VWS V14.01,2013-08-10 11:41:00,
2013-08-10 07:47:00,72.9,58.2,29.32,North,353,0.0,0.0,60,0.00,,,0.00,VWS V14.01,2013-08-10 11:47:00,
2013-08-10 07:52:00,72.9,58.2,29.32,East,93,0.0,0.0,60,0.00,,,0.00,VWS V14.01,2013-08-10 11:52:00,
2013-08-10 07:57:00,72.9,58.2,29.32,ESE,104,0.0,0.0,60,0.00,,,0.00,VWS V14.01,2013-08-10 11:57:00,
2013-08-10 08:02:00,73.0,58.3,29.32,ESE,103,0.0,0.0,60,0.00,,,0.00,VWS V14.01,2013-08-10 12:02:00,
2013-08-10 08:07:00,73.0,57.9,29.35,ESE,103,0.0,0.0,59,0.00,,,0.00,VWS V14.01,2013-08-10 12:07:00,
2013-08-10 08:12:00,73.0,57.9,29.35,ESE,103,0.0,0.0,59,0.00,,,0.00,VWS V14.01,2013-08-10 12:12:00,
2013-08-10 08:17:00,73.0,57.9,29.35,ESE,103,0.0,0.0,59,0.00,,,0.00,VWS V14.01,2013-08-10 12:17:00,
2013-08-10 08:23:00,72.9,57.7,29.35,ESE,103,0.0,0.0,59,0.00,,,0.00,VWS V14.01,2013-08-10 12:23:00,
2013-08-10 08:28:00,72.9,57.7,29.35,ESE,103,0.0,0.0,59,0.00,,,0.00,VWS V14.01,2013-08-10 12:28:00,
2013-08-10 08:33:00,72.9,57.7,29.35,ESE,103,0.0,0.0,59,0.00,,,0.00,VWS V14.01,2013-08-10 12:33:00,
2013-08-10 08:38:00,72.9,57.7,29.35,ESE,103,0.0,0.0,59,0.00,,,0.00,VWS V14.01,2013-08-10 12:38:00,
2013-08-10 08:43:00,73.0,57.9,29.35,ESE,103,0.0,0.0,59,0.00,,,0.00,VWS V14.01,2013-08-10 12:43:00,
2013-08-10 08:49:00,73.2,58.5,29.35,ESE,103,0.0,0.0,60,0.00,,,0.00,VWS V14.01,2013-08-10 12:49:00,
2013-08-10 08:54:00,73.4,58.7,29.35,ESE,104,0.0,0.0,60,0.00,,,0.00,VWS V14.01,2013-08-10 12:54:00,
2013-08-10 08:59:00,73.6,58.8,29.35,ESE,103,0.0,0.0,60,0.00,,,0.00,VWS V14.01,2013-08-10 12:59:00,
2013-08-10 09:04:00,73.6,58.8,29.35,NW,320,0.0,0.0,60,0.00,,,0.00,VWS V14.01,2013-08-10 13:04:00,
2013-08-10 09:09:00,73.8,59.0,29.35,NW,320,0.0,0.0,60,0.00,,,0.00,VWS V14.01,2013-08-10 13:09:00,
2013-08-10 09:14:00,73.6,58.8,29.35,NW,320,0.0,0.0,60,0.00,,,0.00,VWS V14.01,2013-08-10 13:14:00,
2013-08-10 09:19:00,73.4,58.2,29.35,NW,320,0.0,0.0,59,0.00,,,0.00,VWS V14.01,2013-08-10 13:19:00,
2013-08-10 09:25:00,73.4,58.2,29.35,NW,320,0.0,0.0,59,0.00,,,0.00,VWS V14.01,2013-08-10 13:25:00,
2013-08-10 09:30:00,73.4,58.2,29.35,NW,320,0.0,0.0,59,0.00,,,0.00,VWS V14.01,2013-08-10 13:30:00,
2013-08-10 09:35:00,73.6,58.4,29.35,NW,320,0.0,0.0,59,0.00,,,0.00,VWS V14.01,2013-08-10 13:35:00,
2013-08-10 09:40:00,73.6,58.4,29.35,NW,320,0.0,0.0,59,0.00,,,0.00,VWS V14.01,2013-08-10 13:40:00,
2013-08-10 09:45:00,73.6,58.4,29.35,NW,320,0.0,0.0,59,0.00,,,0.00,VWS V14.01,2013-08-10 13:45:00,
2013-08-10 09:50:00,73.6,57.9,29.35,NW,320,0.0,0.0,58,0.00,,,0.00,VWS V14.01,2013-08-10 13:50:00,
2013-08-10 09:55:00,73.6,57.4,29.35,NNW,335,0.0,0.0,57,0.00,,,0.00,VWS V14.01,2013-08-10 13:55:00,
2013-08-10 10:00:00,73.9,57.8,29.35,NNW,344,0.0,0.0,57,0.00,,,0.00,VWS V14.01,2013-08-10 14:00:00,
2013-08-10 10:05:00,73.9,56.8,29.35,NNW,344,0.0,0.0,55,0.00,,,0.00,VWS V14.01,2013-08-10 14:05:00,
2013-08-10 10:10:00,74.1,56.9,29.35,NNW,344,0.0,0.0,55,0.00,,,0.00,VWS V14.01,2013-08-10 14:10:00,
2013-08-10 10:15:00,74.3,56.1,29.35,NNW,344,0.0,0.0,53,0.00,,,0.00,VWS V14.01,2013-08-10 14:15:00,
2013-08-10 10:20:00,74.5,55.7,29.38,NNW,337,0.0,0.0,52,0.00,,,0.00,VWS V14.01,2013-08-10 14:20:00,
2013-08-10 10:25:00,74.7,54.8,29.38,NNW,328,0.0,0.0,50,0.00,,,0.00,VWS V14.01,2013-08-10 14:25:00,
2013-08-10 10:30:00,74.8,54.4,29.38,NNW,332,0.0,0.0,49,0.00,,,0.00,VWS V14.01,2013-08-10 14:30:00,
2013-08-10 10:35:00,75.0,53.4,29.35,NNW,331,0.0,0.0,47,0.00,,,0.00,VWS V14.01,2013-08-10 14:35:00,
2013-08-10 10:40:00,75.4,52.6,29.35,NNW,332,0.0,0.0,45,0.00,,,0.00,VWS V14.01,2013-08-10 14:40:00,
2013-08-10 10:45:00,75.6,52.1,29.35,North,353,0.0,0.0,44,0.00,,,0.00,VWS V14.01,2013-08-10 14:45:00,
2013-08-10 10:51:00,75.6,50.9,29.38,North,353,0.0,0.0,42,0.00,,,0.00,VWS V14.01,2013-08-10 14:51:00,
2013-08-10 10:56:00,75.7,50.4,29.38,NNW,332,0.0,0.0,41,0.00,,,0.00,VWS V14.01,2013-08-10 14:56:00,
2013-08-10 11:01:00,75.9,50.5,29.38,NNW,340,0.0,0.0,41,0.00,,,0.00,VWS V14.01,2013-08-10 15:01:00,
2013-08-10 11:06:00,75.7,49.0,29.35,NNW,333,2.2,2.2,39,0.00,,,0.00,VWS V14.01,2013-08-10 15:06:00,
2013-08-10 11:12:00,75.7,49.0,29.35,WNW,283,0.0,0.0,39,0.00,,,0.00,VWS V14.01,2013-08-10 15:12:00,
2013-08-10 11:17:00,75.7,49.7,29.35,WNW,283,0.0,0.0,40,0.00,,,0.00,VWS V14.01,2013-08-10 15:17:00,
2013-08-10 11:22:00,75.9,49.2,29.35,WNW,283,0.0,0.0,39,0.00,,,0.00,VWS V14.01,2013-08-10 15:22:00,
2013-08-10 11:27:00,76.1,49.4,29.35,WNW,283,0.0,0.0,39,0.00,,,0.00,VWS V14.01,2013-08-10 15:27:00,
2013-08-10 11:32:00,76.1,49.4,29.35,WNW,285,0.0,0.0,39,0.00,,,0.00,VWS V14.01,2013-08-10 15:32:00,
2013-08-10 11:37:00,76.3,48.8,29.35,NW,321,0.0,0.0,38,0.00,,,0.00,VWS V14.01,2013-08-10 15:37:00,
2013-08-10 11:43:00,76.5,49.0,29.35,NNW,334,0.0,3.6,38,0.00,,,0.00,VWS V14.01,2013-08-10 15:43:00,
2013-08-10 11:48:00,76.5,48.3,29.35,NNW,332,0.0,0.0,37,0.00,,,0.00,VWS V14.01,2013-08-10 15:48:00,
2013-08-10 11:53:00,76.5,47.5,29.35,NW,312,0.0,0.0,36,0.00,,,0.00,VWS V14.01,2013-08-10 15:53:00,
2013-08-10 11:58:00,76.6,47.7,29.35,NW,307,0.0,0.0,36,0.00,,,0.00,VWS V14.01,2013-08-10 15:58:00,
2013-08-10 12:03:00,76.8,47.9,29.35,NNW,337,2.2,2.2,36,0.00,,,0.00,VWS V14.01,2013-08-10 16:03:00,
2013-08-10 12:08:00,76.8,47.1,29.35,NW,307,0.0,0.0,35,0.00,,,0.00,VWS V14.01,2013-08-10 16:08:00,
2013-08-10 12:13:00,77.2,47.4,29.35,NNW,333,0.0,0.0,35,0.00,,,0.00,VWS V14.01,2013-08-10 16:13:00,
2013-08-10 12:19:00,77.4,46.8,29.35,North,357,0.0,0.0,34,0.00,,,0.00,VWS V14.01,2013-08-10 16:19:00,
2013-08-10 12:24:00,77.5,47.0,29.35,NW,307,0.0,0.0,34,0.00,,,0.00,VWS V14.01,2013-08-10 16:24:00,
2013-08-10 12:29:00,78.3,47.6,29.35,WSW,257,0.0,0.0,34,0.00,,,0.00,VWS V14.01,2013-08-10 16:29:00,
2013-08-10 12:34:00,78.4,47.0,29.35,North,2,0.0,0.0,33,0.00,,,0.00,VWS V14.01,2013-08-10 16:34:00,
2013-08-10 12:39:00,79.2,47.6,29.35,NE,55,0.0,0.0,33,0.00,,,0.00,VWS V14.01,2013-08-10 16:39:00,
2013-08-10 12:44:00,79.3,45.2,29.35,East,80,0.0,0.0,30,0.00,,,0.00,VWS V14.01,2013-08-10 16:44:00,
2013-08-10 12:49:00,79.2,42.3,29.35,SSW,200,0.0,0.0,27,0.00,,,0.00,VWS V14.01,2013-08-10 16:49:00,
2013-08-10 12:54:00,79.3,41.5,29.35,WNW,288,0.0,0.0,26,0.00,,,0.00,VWS V14.01,2013-08-10 16:54:00,
2013-08-10 12:59:00,79.2,40.3,29.35,West,271,0.0,0.0,25,0.00,,,0.00,VWS V14.01,2013-08-10 16:59:00,
2013-08-10 13:04:00,78.6,40.9,29.35,SW,222,0.0,0.0,26,0.00,,,0.00,VWS V14.01,2013-08-10 17:04:00,
2013-08-10 13:09:00,78.8,42.0,29.35,SW,232,0.0,0.0,27,0.00,,,0.00,VWS V14.01,2013-08-10 17:09:00,
2013-08-10 13:14:00,79.0,41.2,29.35,SW,234,0.0,0.0,26,0.00,,,0.00,VWS V14.01,2013-08-10 17:14:00,
2013-08-10 13:19:00,79.0,41.2,29.35,SW,234,0.0,0.0,26,0.00,,,0.00,VWS V14.01,2013-08-10 17:19:00,
2013-08-10 13:24:00,78.8,41.0,29.35,SW,234,0.0,0.0,26,0.00,,,0.00,VWS V14.01,2013-08-10 17:24:00,
2013-08-10 13:29:00,78.6,40.9,29.35,WSW,238,0.0,0.0,26,0.00,,,0.00,VWS V14.01,2013-08-10 17:29:00,
2013-08-10 13:34:00,78.4,39.7,29.35,WSW,239,0.0,0.0,25,0.00,,,0.00,VWS V14.01,2013-08-10 17:34:00,
2013-08-10 13:39:00,78.1,39.4,29.35,WNW,298,0.0,2.7,25,0.00,,,0.00,VWS V14.01,2013-08-10 17:39:00,
2013-08-10 13:44:00,77.7,39.1,29.35,WNW,298,0.0,0.0,25,0.00,,,0.00,VWS V14.01,2013-08-10 17:44:00,
2013-08-10 13:49:00,77.5,39.0,29.35,WNW,298,0.0,0.0,25,0.00,,,0.00,VWS V14.01,2013-08-10 17:49:00,
2013-08-10 13:54:00,77.9,40.3,29.35,SE,130,0.0,0.0,26,0.00,,,0.00,VWS V14.01,2013-08-10 17:54:00,
2013-08-10 13:59:00,78.3,41.6,29.35,East,101,3.1,3.1,27,0.00,,,0.00,VWS V14.01,2013-08-10 17:59:00,
2013-08-10 14:04:00,78.8,42.0,29.35,ESE,113,0.0,0.0,27,0.00,,,0.00,VWS V14.01,2013-08-10 18:04:00,
2013-08-10 14:10:00,78.8,40.0,29.35,West,279,0.0,0.0,25,0.00,,,0.00,VWS V14.01,2013-08-10 18:10:00,
2013-08-10 14:15:00,78.4,38.7,29.35,West,267,0.0,0.0,24,0.00,,,0.00,VWS V14.01,2013-08-10 18:15:00,
2013-08-10 14:20:00,78.4,38.7,29.35,WSW,241,0.0,0.0,24,0.00,,,0.00,VWS V14.01,2013-08-10 18:20:00,
2013-08-10 14:25:00,78.4,38.7,29.35,WSW,238,0.0,0.0,24,0.00,,,0.00,VWS V14.01,2013-08-10 18:25:00,
2013-08-10 14:30:00,78.8,39.0,29.35,SSE,148,0.0,0.0,24,0.00,,,0.00,VWS V14.01,2013-08-10 18:30:00,
2013-08-10 14:35:00,79.0,40.2,29.35,ESE,112,0.0,0.0,25,0.00,,,0.00,VWS V14.01,2013-08-10 18:35:00,
2013-08-10 14:40:00,79.3,40.5,29.35,East,101,0.0,2.7,25,0.00,,,0.00,VWS V14.01,2013-08-10 18:40:00,
2013-08-10 14:45:00,79.5,40.7,29.35,SSW,193,0.0,0.0,25,0.00,,,0.00,VWS V14.01,2013-08-10 18:45:00,
2013-08-10 14:50:00,79.3,38.4,29.35,SE,136,0.0,0.0,23,0.00,,,0.00,VWS V14.01,2013-08-10 18:50:00,
2013-08-10 14:55:00,79.5,38.5,29.35,East,96,2.2,2.2,23,0.00,,,0.00,VWS V14.01,2013-08-10 18:55:00,
2013-08-10 15:00:00,79.7,37.5,29.35,SW,230,0.0,0.0,22,0.00,,,0.00,VWS V14.01,2013-08-10 19:00:00,
2013-08-10 15:05:00,79.9,37.7,29.32,West,269,0.0,0.0,22,0.00,,,0.00,VWS V14.01,2013-08-10 19:05:00,
2013-08-10 15:10:00,80.2,38.0,29.32,WSW,252,0.0,0.0,22,0.00,,,0.00,VWS V14.01,2013-08-10 19:10:00,
2013-08-10 15:15:00,80.2,38.0,29.32,WSW,252,0.0,0.0,22,0.00,,,0.00,VWS V14.01,2013-08-10 19:15:00,
2013-08-10 15:20:00,80.6,38.3,29.35,North,357,0.0,0.0,22,0.00,,,0.00,VWS V14.01,2013-08-10 19:20:00,
2013-08-10 15:26:00,81.0,38.6,29.35,North,2,0.0,0.0,22,0.00,,,0.00,VWS V14.01,2013-08-10 19:26:00,
2013-08-10 15:31:00,81.1,38.7,29.35,ENE,75,0.0,0.0,22,0.00,,,0.00,VWS V14.01,2013-08-10 19:31:00,
2013-08-10 15:36:00,81.1,37.5,29.32,West,278,0.0,0.0,21,0.00,,,0.00,VWS V14.01,2013-08-10 19:36:00,
2013-08-10 15:41:00,81.0,37.4,29.32,SE,128,0.0,0.0,21,0.00,,,0.00,VWS V14.01,2013-08-10 19:41:00,
2013-08-10 15:46:00,81.0,38.6,29.32,WNW,286,0.0,0.0,22,0.00,,,0.00,VWS V14.01,2013-08-10 19:46:00,
2013-08-10 15:51:00,81.0,38.6,29.32,WSW,242,0.0,0.0,22,0.00,,,0.00,VWS V14.01,2013-08-10 19:51:00,
2013-08-10 15:57:00,80.4,38.1,29.32,WNW,285,0.0,0.0,22,0.00,,,0.00,VWS V14.01,2013-08-10 19:57:00,
2013-08-10 16:02:00,80.4,38.1,29.32,NNW,334,0.0,0.0,22,0.00,,,0.00,VWS V14.01,2013-08-10 20:02:00,
2013-08-10 16:07:00,80.4,38.1,29.32,NNW,334,0.0,0.0,22,0.00,,,0.00,VWS V14.01,2013-08-10 20:07:00,
2013-08-10 16:12:00,80.4,38.1,29.32,ESE,106,0.0,0.0,22,0.00,,,0.00,VWS V14.01,2013-08-10 20:12:00,
2013-08-10 16:17:00,80.8,38.4,29.32,NW,320,0.0,0.0,22,0.00,,,0.00,VWS V14.01,2013-08-10 20:17:00,
2013-08-10 16:22:00,80.8,38.4,29.32,NNW,328,0.0,0.0,22,0.00,,,0.00,VWS V14.01,2013-08-10 20:22:00,
2013-08-10 16:27:00,80.8,38.4,29.32,North,1,0.0,0.0,22,0.00,,,0.00,VWS V14.01,2013-08-10 20:27:00,
2013-08-10 16:32:00,81.0,38.6,29.32,North,353,0.0,0.0,22,0.00,,,0.00,VWS V14.01,2013-08-10 20:32:00,
2013-08-10 16:37:00,81.1,38.7,29.32,NE,50,0.0,0.0,22,0.00,,,0.00,VWS V14.01,2013-08-10 20:37:00,
2013-08-10 16:42:00,81.1,38.7,29.32,NW,325,0.0,3.1,22,0.00,,,0.00,VWS V14.01,2013-08-10 20:42:00,
2013-08-10 16:47:00,81.3,38.9,29.32,North,2,0.0,0.0,22,0.00,,,0.00,VWS V14.01,2013-08-10 20:47:00,
2013-08-10 16:52:00,81.3,38.9,29.32,NNW,338,0.0,0.0,22,0.00,,,0.00,VWS V14.01,2013-08-10 20:52:00,
2013-08-10 16:57:00,81.5,39.0,29.32,NNW,335,2.7,3.6,22,0.00,,,0.00,VWS V14.01,2013-08-10 20:57:00,
2013-08-10 17:03:00,81.5,39.0,29.32,NNW,341,0.0,0.0,22,0.00,,,0.00,VWS V14.01,2013-08-10 21:03:00,
2013-08-10 17:08:00,81.5,39.0,29.32,North,7,0.0,0.0,22,0.00,,,0.00,VWS V14.01,2013-08-10 21:08:00,
2013-08-10 17:13:00,81.7,39.2,29.32,North,353,0.0,0.0,22,0.00,,,0.00,VWS V14.01,2013-08-10 21:13:00,
2013-08-10 17:18:00,81.7,39.2,29.32,SW,219,0.0,0.0,22,0.00,,,0.00,VWS V14.01,2013-08-10 21:18:00,
2013-08-10 17:23:00,81.7,39.2,29.32,SW,223,0.0,0.0,22,0.00,,,0.00,VWS V14.01,2013-08-10 21:23:00,
2013-08-10 17:29:00,81.7,39.2,29.32,NW,319,0.0,0.0,22,0.00,,,0.00,VWS V14.01,2013-08-10 21:29:00,
2013-08-10 17:35:00,81.5,39.0,29.32,West,271,0.0,0.0,22,0.00,,,0.00,VWS V14.01,2013-08-10 21:35:00,
2013-08-10 17:40:00,81.5,39.0,29.32,SSE,166,0.0,0.0,22,0.00,,,0.00,VWS V14.01,2013-08-10 21:40:00,
2013-08-10 17:45:00,81.5,39.0,29.32,SW,226,0.0,0.0,22,0.00,,,0.00,VWS V14.01,2013-08-10 21:45:00,
2013-08-10 17:50:00,81.3,38.9,29.32,SW,226,0.0,0.0,22,0.00,,,0.00,VWS V14.01,2013-08-10 21:50:00,
2013-08-10 17:55:00,81.3,38.9,29.32,SW,226,0.0,0.0,22,0.00,,,0.00,VWS V14.01,2013-08-10 21:55:00,
2013-08-10 18:00:00,81.5,40.2,29.32,SW,226,0.0,0.0,23,0.00,,,0.00,VWS V14.01,2013-08-10 22:00:00,
2013-08-10 18:05:00,81.9,41.6,29.32,WSW,258,0.0,0.0,24,0.00,,,0.00,VWS V14.01,2013-08-10 22:05:00,
2013-08-10 18:10:00,82.0,41.7,29.32,WSW,258,0.0,0.0,24,0.00,,,0.00,VWS V14.01,2013-08-10 22:10:00,
2013-08-10 18:15:00,82.2,42.9,29.32,WSW,258,0.0,0.0,25,0.00,,,0.00,VWS V14.01,2013-08-10 22:15:00,
2013-08-10 18:21:00,82.2,44.0,29.32,WSW,258,0.0,0.0,26,0.00,,,0.00,VWS V14.01,2013-08-10 22:21:00,
2013-08-10 18:26:00,82.2,42.9,29.32,WSW,258,0.0,0.0,25,0.00,,,0.00,VWS V14.01,2013-08-10 22:26:00,
2013-08-10 18:31:00,82.0,42.8,29.32,SE,142,0.0,0.0,25,0.00,,,0.00,VWS V14.01,2013-08-10 22:31:00,
2013-08-10 18:36:00,81.9,42.6,29.32,SE,142,0.0,0.0,25,0.00,,,0.00,VWS V14.01,2013-08-10 22:36:00,
2013-08-10 18:41:00,81.9,43.7,29.32,SE,142,0.0,0.0,26,0.00,,,0.00,VWS V14.01,2013-08-10 22:41:00,
2013-08-10 18:46:00,81.9,43.7,29.32,SE,142,0.0,0.0,26,0.00,,,0.00,VWS V14.01,2013-08-10 22:46:00,
2013-08-10 18:51:00,81.7,42.5,29.32,SE,142,0.0,0.0,25,0.00,,,0.00,VWS V14.01,2013-08-10 22:51:00,
2013-08-10 18:56:00,81.5,41.3,29.32,SW,224,0.0,0.0,24,0.00,,,0.00,VWS V14.01,2013-08-10 22:56:00,
2013-08-10 19:01:00,81.5,41.3,29.32,SW,227,0.0,0.0,24,0.00,,,0.00,VWS V14.01,2013-08-10 23:01:00,
2013-08-10 19:06:00,81.5,41.3,29.32,SW,226,0.0,0.0,24,0.00,,,0.00,VWS V14.01,2013-08-10 23:06:00,
2013-08-10 19:11:00,81.3,42.2,29.32,SW,227,0.0,0.0,25,0.00,,,0.00,VWS V14.01,2013-08-10 23:11:00,
2013-08-10 19:17:00,81.1,42.0,29.32,SW,227,0.0,0.0,25,0.00,,,0.00,VWS V14.01,2013-08-10 23:17:00,
2013-08-10 19:21:00,80.6,42.6,29.32,SE,133,0.0,0.0,26,0.00,,,0.00,VWS V14.01,2013-08-10 23:21:00,
2013-08-10 19:26:00,80.2,43.3,29.32,SE,133,0.0,0.0,27,0.00,,,0.00,VWS V14.01,2013-08-10 23:26:00,
2013-08-10 19:32:00,79.9,43.9,29.32,ESE,111,0.0,0.0,28,0.00,,,0.00,VWS V14.01,2013-08-10 23:32:00,
2013-08-10 19:37:00,79.7,44.7,29.32,ESE,111,0.0,0.0,29,0.00,,,0.00,VWS V14.01,2013-08-10 23:37:00,
2013-08-10 19:42:00,79.3,45.2,29.32,ESE,111,0.0,0.0,30,0.00,,,0.00,VWS V14.01,2013-08-10 23:42:00,
2013-08-10 19:47:00,79.0,44.9,29.32,ESE,111,0.0,0.0,30,0.00,,,0.00,VWS V14.01,2013-08-10 23:47:00,
2013-08-10 19:52:00,78.8,44.8,29.32,ESE,111,0.0,0.0,30,0.00,,,0.00,VWS V14.01,2013-08-10 23:52:00,
2013-08-10 19:57:00,78.4,45.3,29.32,ESE,111,0.0,0.0,31,0.00,,,0.00,VWS V14.01,2013-08-10 23:57:00,
2013-08-10 20:02:00,78.1,45.0,29.32,ESE,111,0.0,0.0,31,0.00,,,0.00,VWS V14.01,2013-08-11 00:02:00,
2013-08-10 20:07:00,77.7,45.5,29.32,ESE,111,0.0,0.0,32,0.00,,,0.00,VWS V14.01,2013-08-11 00:07:00,
2013-08-10 20:12:00,77.5,45.4,29.32,ESE,111,0.0,0.0,32,0.00,,,0.00,VWS V14.01,2013-08-11 00:12:00,
2013-08-10 20:17:00,77.2,45.1,29.32,ESE,111,0.0,0.0,32,0.00,,,0.00,VWS V14.01,2013-08-11 00:17:00,
2013-08-10 20:22:00,77.0,44.9,29.32,ESE,111,0.0,0.0,32,0.00,,,0.00,VWS V14.01,2013-08-11 00:22:00,
2013-08-10 20:27:00,76.8,45.6,29.32,ESE,111,0.0,0.0,33,0.00,,,0.00,VWS V14.01,2013-08-11 00:27:00,
2013-08-10 20:32:00,76.5,45.2,29.32,ESE,111,0.0,0.0,33,0.00,,,0.00,VWS V14.01,2013-08-11 00:32:00,
2013-08-10 20:37:00,76.3,45.1,29.32,ESE,111,0.0,0.0,33,0.00,,,0.00,VWS V14.01,2013-08-11 00:37:00,
2013-08-10 20:43:00,76.1,45.7,29.32,ESE,111,0.0,0.0,34,0.00,,,0.00,VWS V14.01,2013-08-11 00:43:00,
2013-08-10 20:48:00,75.9,45.6,29.32,ESE,111,0.0,0.0,34,0.00,,,0.00,VWS V14.01,2013-08-11 00:48:00,
2013-08-10 20:53:00,75.7,45.4,29.35,ESE,111,0.0,0.0,34,0.00,,,0.00,VWS V14.01,2013-08-11 00:53:00,
2013-08-10 21:01:00,75.4,45.9,29.35,ESE,111,0.0,0.0,35,0.00,,,0.00,VWS V14.01,2013-08-11 01:01:00,
2013-08-10 21:06:00,75.4,45.9,29.35,ESE,111,0.0,0.0,35,0.00,,,0.00,VWS V14.01,2013-08-11 01:06:00,
2013-08-10 21:07:00,75.2,45.7,29.35,ESE,111,0.0,0.0,35,0.00,,,0.00,VWS V14.01,2013-08-11 01:07:00,
2013-08-10 21:13:00,75.2,45.7,29.35,ESE,111,0.0,0.0,35,0.00,,,0.00,VWS V14.01,2013-08-11 01:13:00,
2013-08-10 21:19:00,74.8,46.1,29.35,ESE,111,0.0,0.0,36,0.00,,,0.00,VWS V14.01,2013-08-11 01:19:00,
2013-08-10 21:24:00,74.7,46.0,29.35,ESE,111,0.0,0.0,36,0.00,,,0.00,VWS V14.01,2013-08-11 01:24:00,
2013-08-10 21:29:00,74.5,45.8,29.35,ESE,111,0.0,0.0,36,0.00,,,0.00,VWS V14.01,2013-08-11 01:29:00,
2013-08-10 21:34:00,74.3,46.4,29.35,ESE,111,0.0,0.0,37,0.00,,,0.00,VWS V14.01,2013-08-11 01:34:00,
2013-08-10 21:39:00,74.1,46.2,29.35,ESE,111,0.0,0.0,37,0.00,,,0.00,VWS V14.01,2013-08-11 01:39:00,
2013-08-10 21:44:00,73.8,46.6,29.35,ESE,111,0.0,0.0,38,0.00,,,0.00,VWS V14.01,2013-08-11 01:44:00,
2013-08-10 21:50:00,73.8,47.3,29.35,ESE,111,0.0,0.0,39,0.00,,,0.00,VWS V14.01,2013-08-11 01:50:00,
2013-08-10 21:55:00,73.6,47.1,29.35,ESE,111,0.0,0.0,39,0.00,,,0.00,VWS V14.01,2013-08-11 01:55:00,
2013-08-10 22:00:00,73.4,47.6,29.35,ESE,111,0.0,0.0,40,0.00,,,0.00,VWS V14.01,2013-08-11 02:00:00,
2013-08-10 22:05:00,73.2,48.1,29.35,ESE,111,0.0,0.0,41,0.00,,,0.00,VWS V14.01,2013-08-11 02:05:00,
2013-08-10 22:10:00,73.0,48.0,29.35,ESE,111,0.0,0.0,41,0.00,,,0.00,VWS V14.01,2013-08-11 02:10:00,
2013-08-10 22:15:00,72.9,48.5,29.35,ESE,111,0.0,0.0,42,0.00,,,0.00,VWS V14.01,2013-08-11 02:15:00,
2013-08-10 22:20:00,72.9,48.5,29.35,ESE,111,0.0,0.0,42,0.00,,,0.00,VWS V14.01,2013-08-11 02:20:00,
2013-08-10 22:25:00,72.7,48.9,29.35,ESE,111,0.0,0.0,43,0.00,,,0.00,VWS V14.01,2013-08-11 02:25:00,
2013-08-10 22:30:00,72.7,48.9,29.35,ESE,111,0.0,0.0,43,0.00,,,0.00,VWS V14.01,2013-08-11 02:30:00,
2013-08-10 22:35:00,72.5,48.8,29.35,ESE,111,0.0,0.0,43,0.00,,,0.00,VWS V14.01,2013-08-11 02:35:00,
2013-08-10 22:40:00,72.5,48.8,29.35,ESE,111,0.0,0.0,43,0.00,,,0.00,VWS V14.01,2013-08-11 02:40:00,
2013-08-10 22:45:00,72.5,48.8,29.35,ESE,111,0.0,0.0,43,0.00,,,0.00,VWS V14.01,2013-08-11 02:45:00,
2013-08-10 22:50:00,72.3,49.2,29.38,ESE,111,0.0,0.0,44,0.00,,,0.00,VWS V14.01,2013-08-11 02:50:00,
2013-08-10 22:55:00,72.3,49.2,29.38,ESE,111,0.0,0.0,44,0.00,,,0.00,VWS V14.01,2013-08-11 02:55:00,
2013-08-10 23:00:00,72.3,49.2,29.38,ESE,111,0.0,0.0,44,0.00,,,0.00,VWS V14.01,2013-08-11 03:00:00,
2013-08-10 23:05:00,72.1,49.0,29.35,ESE,111,0.0,0.0,44,0.00,,,0.00,VWS V14.01,2013-08-11 03:05:00,
2013-08-10 23:10:00,72.0,48.9,29.35,ESE,111,0.0,0.0,44,0.00,,,0.00,VWS V14.01,2013-08-11 03:10:00,
2013-08-10 23:15:00,72.0,49.5,29.35,ESE,111,0.0,0.0,45,0.00,,,0.00,VWS V14.01,2013-08-11 03:15:00,
2013-08-10 23:20:00,71.8,49.3,29.38,ESE,111,0.0,0.0,45,0.00,,,0.00,VWS V14.01,2013-08-11 03:20:00,
2013-08-10 23:25:00,71.8,49.3,29.38,ESE,111,0.0,0.0,45,0.00,,,0.00,VWS V14.01,2013-08-11 03:25:00,
2013-08-10 23:31:00,71.8,49.9,29.38,ESE,111,0.0,0.0,46,0.00,,,0.00,VWS V14.01,2013-08-11 03:31:00,
2013-08-10 23:36:00,71.8,49.9,29.38,ESE,111,0.0,0.0,46,0.00,,,0.00,VWS V14.01,2013-08-11 03:36:00,
2013-08-10 23:41:00,71.8,49.9,29.38,ESE,111,0.0,0.0,46,0.00,,,0.00,VWS V14.01,2013-08-11 03:41:00,
2013-08-10 23:46:00,71.6,49.8,29.38,ESE,111,0.0,0.0,46,0.00,,,0.00,VWS V14.01,2013-08-11 03:46:00,
2013-08-10 23:51:00,71.6,49.8,29.38,ESE,111,0.0,0.0,46,0.00,,,0.00,VWS V14.01,2013-08-11 03:51:00,
2013-08-10 23:56:00,71.4,50.2,29.38,ESE,111,0.0,0.0,47,0.00,,,0.00,VWS V14.01,2013-08-11 03:56:00,